GW1852 Weather Reports


time (UTC)temp
C
wind
direction
speed
KPH
gust
KPH
rain 1hr
cm
rain 24hr
cm
rain mn
cm
humidity
%
barometer
mb
20260503033054 15 45 11.3 12.9 0.00 0.00 0.00 39 1016.1
20260503031552 15 32 1.6 4.8 0.00 0.00 0.00 41 1015.6
20260503030120 15 32 0.0 0.0 0.00 0.00 0.00 39 1015.5
20260503024550 16 32 0.0 0.0 0.00 0.00 0.00 42 1015.4
20260503023051 16 32 0.0 0.0 0.00 0.00 0.00 41 1015.3
20260503021556 17 32 0.0 1.6 0.00 0.00 0.00 34 1015.3
20260503020048 17 30 3.2 3.2 0.00 0.00 0.00 34 1015.2
20260503014602 18 358 1.6 1.6 0.00 0.00 0.00 33 1015.3
20260503013051 18 358 1.6 3.2 0.00 0.00 0.00 31 1015.4
20260503011554 19 37 0.0 4.8 0.00 0.00 0.00 31 1015.4
20260503010051 18 37 1.6 4.8 0.00 0.00 0.00 31 1015.6
20260503004543 18 13 1.6 4.8 0.00 0.00 0.00 32 1015.6
20260503003053 18 356 1.6 4.8 0.00 0.00 0.00 32 1015.8
20260503001542 18 308 1.6 6.4 0.00 0.00 0.00 32 1016.0
20260503000040 18 288 4.8 9.7 0.00 0.00 0.00 38 1016.0
20260502234539 19 243 6.4 9.7 0.00 0.00 0.00 34 1016.0
20260502233039 19 262 8.0 12.9 0.00 0.00 0.00 35 1016.2
20260502231538 19 311 4.8 11.3 0.00 0.00 0.00 31 1016.5
20260502230036 19 249 4.8 9.7 0.00 0.00 0.00 34 1016.7
20260502224533 19 271 4.8 9.7 0.00 0.00 0.00 32 1016.8
20260502223034 19 245 3.2 8.0 0.00 0.00 0.00 32 1017.0
20260502221530 18 241 3.2 6.4 0.00 0.00 0.00 36 1017.3
20260502220030 18 214 3.2 9.7 0.00 0.00 0.00 35 1017.4
20260502214527 18 224 3.2 8.0 0.00 0.00 0.00 35 1017.7
20260502213037 18 235 3.2 4.8 0.00 0.00 0.00 37 1017.8
20260502211530 18 107 3.2 6.4 0.00 0.00 0.00 36 1018.0
20260502210025 17 165 4.8 12.9 0.00 0.00 0.00 38 1018.1
20260502204521 18 175 1.6 9.7 0.00 0.00 0.00 36 1018.2
20260502203021 17 128 4.8 11.3 0.00 0.00 0.00 39 1018.4
20260502201526 17 65 4.8 11.3 0.00 0.00 0.00 40 1018.5
20260502200019 17 65 9.7 27.4 0.00 0.00 0.00 38 1018.8
20260502194517 17 347 4.8 9.7 0.00 0.00 0.00 37 1018.8
20260502193018 18 149 1.6 8.0 0.00 0.00 0.00 37 1018.9
20260502191521 17 106 1.6 8.0 0.00 0.00 0.00 38 1019.0
20260502190021 18 312 19.3 27.4 0.00 0.00 0.00 37 1019.0
20260502184523 18 188 3.2 9.7 0.00 0.00 0.00 37 1019.2
20260502183011 17 251 3.2 12.9 0.00 0.00 0.00 36 1019.4
20260502181509 17 12 8.0 16.1 0.00 0.00 0.00 38 1019.5
20260502163001 16 347 6.4 14.5 0.00 0.00 0.00 41 1019.8
20260502161559 15 46 3.2 20.9 0.00 0.00 0.00 41 1020.0
20260502151601 14 75 6.4 14.5 0.00 0.00 0.00 42 1020.1
20260502123020 8 34 11.3 20.9 0.00 0.00 0.00 55 1018.5
20260502121518 8 57 8.0 19.3 0.00 0.00 0.00 55 1018.3
20260502114513 7 55 4.8 12.9 0.00 0.00 0.00 57 1018.1
20260502113011 6 352 3.2 8.0 0.00 0.00 0.00 67 1018.0
20260502111507 6 349 4.8 9.7 0.00 0.00 0.00 66 1017.7
20260502110003 7 18 4.8 9.7 0.00 0.00 0.00 65 1017.6
20260502104600 7 350 4.8 8.0 0.00 0.00 0.00 59 1017.4
20260502103101 7 340 4.8 12.9 0.00 0.00 0.00 60 1017.2
20260502101554 8 353 6.4 9.7 0.00 0.00 0.00 56 1017.0
20260502071529 7 285 0.0 0.0 0.00 0.00 0.00 58 1015.9
20260502070026 8 285 0.0 0.0 0.00 0.00 0.00 52 1015.7
20260502064538 11 326 0.0 0.0 0.00 0.00 0.00 38 1015.8
20260502063022 10 332 0.0 0.0 0.00 0.00 0.00 42 1015.7
20260502061516 10 323 0.0 0.0 0.00 0.00 0.00 41 1015.6
20260502060014 10 298 0.0 0.0 0.00 0.00 0.00 44 1015.7
20260502054512 10 300 0.0 0.0 0.00 0.00 0.00 43 1015.5
20260502053011 11 348 0.0 0.0 0.00 0.00 0.00 44 1015.4
20260502051511 12 4 0.0 0.0 0.00 0.00 0.00 38 1015.3
20260502050020 12 13 0.0 0.0 0.00 0.00 0.00 38 1015.2
20260502044510 12 28 0.0 0.0 0.00 0.00 0.00 37 1015.2
20260502043009 12 341 0.0 0.0 0.00 0.00 0.00 41 1015.2
20260502041507 13 9 0.0 0.0 0.00 0.00 0.00 31 1015.1
20260502040007 13 359 0.0 0.0 0.00 0.00 0.00 40 1015.0
20260502034507 13 359 4.8 9.7 0.00 0.00 0.00 39 1015.0